TimeCDT,TemperatureF,Dew PointF,Humidity,Sea Level PressureIn,VisibilityMPH,Wind Direction,Wind SpeedMPH,Gust SpeedMPH,PrecipitationIn,Events,Conditions,WindDirDegrees,DateUTC
12:53 AM,71.1,70.0,96,30.11,10.0,Calm,Calm,-,0.01,,Partly Cloudy,0,2012-09-14 05:53:00
1:53 AM,71.1,70.0,96,30.10,5.0,East,3.5,-,N/A,,Clear,80,2012-09-14 06:53:00
2:53 AM,71.1,70.0,96,30.09,8.0,Calm,Calm,-,N/A,,Clear,0,2012-09-14 07:53:00
3:06 AM,71.6,69.8,94,30.11,5.0,WNW,3.5,-,N/A,,Scattered Clouds,300,2012-09-14 08:06:00
3:17 AM,71.6,69.8,94,30.11,4.0,Calm,Calm,-,N/A,,Mostly Cloudy,0,2012-09-14 08:17:00
3:53 AM,71.1,69.1,93,30.10,6.0,Calm,Calm,-,N/A,,Mostly Cloudy,0,2012-09-14 08:53:00
4:06 AM,71.6,69.8,94,30.11,5.0,Calm,Calm,-,N/A,,Scattered Clouds,0,2012-09-14 09:06:00
4:53 AM,70.0,69.1,97,30.10,4.0,Calm,Calm,-,N/A,,Mostly Cloudy,0,2012-09-14 09:53:00
5:15 AM,69.8,69.8,100,30.12,2.5,WSW,3.5,-,N/A,,Mostly Cloudy,250,2012-09-14 10:15:00
5:21 AM,69.8,69.8,100,30.12,0.8,West,3.5,-,N/A,,Mostly Cloudy,260,2012-09-14 10:21:00
5:53 AM,70.0,69.1,97,30.10,1.0,Calm,Calm,-,N/A,,Mist,0,2012-09-14 10:53:00
6:33 AM,69.8,69.8,100,30.13,0.8,Calm,Calm,-,N/A,,Mist,0,2012-09-14 11:33:00
6:41 AM,69.8,69.8,100,30.13,1.5,Calm,Calm,-,N/A,,Overcast,0,2012-09-14 11:41:00
6:53 AM,70.0,69.1,97,30.12,1.2,Calm,Calm,-,N/A,,Overcast,0,2012-09-14 11:53:00
7:04 AM,69.8,69.8,100,30.14,0.5,Calm,Calm,-,N/A,Fog,Fog,0,2012-09-14 12:04:00
7:22 AM,69.8,69.8,100,30.14,0.2,Calm,Calm,-,N/A,Fog,Fog,0,2012-09-14 12:22:00
7:35 AM,69.8,69.8,100,30.14,1.0,Calm,Calm,-,N/A,,Mist,0,2012-09-14 12:35:00
7:43 AM,69.8,69.8,100,30.14,3.0,Calm,Calm,-,N/A,,Overcast,0,2012-09-14 12:43:00
7:53 AM,70.0,69.1,97,30.13,3.0,Calm,Calm,-,N/A,,Overcast,0,2012-09-14 12:53:00
8:53 AM,71.1,70.0,96,30.14,3.0,Calm,Calm,-,N/A,,Overcast,0,2012-09-14 13:53:00
9:40 AM,73.4,69.8,88,30.16,7.0,Calm,Calm,-,N/A,,Overcast,0,2012-09-14 14:40:00
9:53 AM,73.0,71.1,93,30.15,8.0,Calm,Calm,-,N/A,,Overcast,0,2012-09-14 14:53:00
10:17 AM,73.4,71.6,94,30.17,2.0,Calm,Calm,-,N/A,,Overcast,0,2012-09-14 15:17:00
10:40 AM,73.4,69.8,88,30.17,4.0,Calm,Calm,-,N/A,,Overcast,0,2012-09-14 15:40:00
10:53 AM,73.9,71.1,91,30.16,5.0,Calm,Calm,-,N/A,,Overcast,0,2012-09-14 15:53:00
11:07 AM,75.2,71.6,89,30.17,6.0,Calm,Calm,-,N/A,,Haze,0,2012-09-14 16:07:00
11:31 AM,75.2,69.8,83,30.17,7.0,Calm,Calm,-,N/A,,Overcast,0,2012-09-14 16:31:00
11:53 AM,75.9,70.0,82,30.16,9.0,Calm,Calm,-,N/A,,Overcast,0,2012-09-14 16:53:00
12:00 PM,77.0,69.8,78,30.17,9.0,Calm,Calm,-,N/A,,Overcast,0,2012-09-14 17:00:00
12:07 PM,78.8,69.8,74,30.17,7.0,Calm,Calm,-,N/A,,Overcast,0,2012-09-14 17:07:00
12:19 PM,75.2,71.6,89,30.16,6.0,WNW,4.6,-,N/A,,Haze,300,2012-09-14 17:19:00
12:49 PM,78.8,69.8,74,30.15,8.0,ESE,3.5,-,N/A,,Mostly Cloudy,120,2012-09-14 17:49:00
12:53 PM,80.1,70.0,71,30.14,8.0,Calm,Calm,-,N/A,,Mostly Cloudy,0,2012-09-14 17:53:00
1:03 PM,80.6,68.0,65,30.15,8.0,Calm,Calm,-,N/A,,Partly Cloudy,0,2012-09-14 18:03:00
1:29 PM,80.6,69.8,70,30.15,10.0,Calm,Calm,-,N/A,,Overcast,0,2012-09-14 18:29:00
1:46 PM,82.4,69.8,66,30.14,9.0,WSW,6.9,-,N/A,,Overcast,240,2012-09-14 18:46:00
1:53 PM,82.0,68.0,62,30.13,9.0,West,6.9,-,N/A,,Overcast,270,2012-09-14 18:53:00
2:53 PM,82.0,69.1,65,30.10,9.0,West,6.9,-,N/A,,Overcast,270,2012-09-14 19:53:00
3:53 PM,81.0,68.0,65,30.09,8.0,WSW,6.9,-,N/A,,Mostly Cloudy,250,2012-09-14 20:53:00
4:53 PM,81.0,68.0,65,30.09,8.0,West,6.9,-,N/A,,Clear,260,2012-09-14 21:53:00
5:53 PM,79.0,69.1,72,30.09,7.0,SW,4.6,-,N/A,,Clear,230,2012-09-14 22:53:00
6:53 PM,77.0,69.1,76,30.10,6.0,Calm,Calm,-,N/A,,Haze,0,2012-09-14 23:53:00
7:53 PM,75.0,70.0,84,30.11,6.0,Calm,Calm,-,N/A,,Haze,0,2012-09-15 00:53:00
8:53 PM,75.9,69.1,79,30.13,8.0,East,6.9,-,N/A,,Overcast,90,2012-09-15 01:53:00
9:00 PM,75.2,69.8,83,30.14,10.0,East,8.1,-,N/A,,Overcast,90,2012-09-15 02:00:00
9:35 PM,75.2,69.8,83,30.15,10.0,ESE,4.6,-,N/A,,Mostly Cloudy,110,2012-09-15 02:35:00
9:53 PM,73.9,69.1,85,30.14,10.0,East,4.6,-,N/A,,Mostly Cloudy,90,2012-09-15 02:53:00
10:49 PM,73.4,68.0,83,30.16,10.0,East,4.6,-,N/A,,Mostly Cloudy,80,2012-09-15 03:49:00
10:53 PM,73.0,68.0,84,30.15,10.0,East,5.8,-,N/A,,Mostly Cloudy,80,2012-09-15 03:53:00
11:53 PM,73.0,68.0,84,30.15,10.0,East,4.6,-,N/A,,Overcast,80,2012-09-15 04:53:00